Weather History for Jacksonville, IL

Change the Weather History Date:

Thursday, February 7, 2013

  Actual Average (KSPI) Record (KSPI)
Temperature  
Mean Temperature 40 °F 29 °F  
Max Temperature 42 °F 37 °F 67 °F (2009)
Min Temperature 37 °F 20 °F -13 °F (2014)
Degree Days  
Heating Degree Days 26 36  
Month to date heating degree days 257  
Since 1 July heating degree days 3583  
Cooling Degree Days 0 0  
Month to date cooling degree days 0  
Year to date cooling degree days 0  
Moisture  
Dew Point 37 °F    
Average Humidity 87    
Maximum Humidity 96    
Minimum Humidity 70    
Precipitation  
Precipitation 0.39 in 0.06 in 1.13 in (1999)
Month to date precipitation 0.39  
Year to date precipitation 2.21  
Snow  
Snow 0.00 in 0.20 in 1.60 in (1933)
Month to date snowfall 1.5  
Since 1 July snowfall 14.1  
Snow Depth -    
Sea Level Pressure  
Sea Level Pressure 29.97 in    
Wind  
Wind Speed 8 mph (SSW)    
Max Wind Speed 18 mph    
Max Gust Speed 25 mph    
Visibility 5 miles    
Events Rain    
T = Trace of Precipitation, MM = Missing Value Source: NWS Daily Summary

Daily Weather History Graph

Daily Weather History Graph

Search for Another Location

Airport:

Trip Planner

Search our weather history database for the weather conditions in past years. The results will help you decide how hot, cold, wet, or windy it might be!

Date:

Astronomy

Feb. 07, 2013 Rise Set
Actual Time 7:02 AM CST 5:28 PM CST
Civil Twilight 6:34 AM CST 5:56 PM CST
Nautical Twilight 6:02 AM CST 6:28 PM CST
Astronomical Twilight 5:31 AM CST 6:59 PM CST
Moon 4:42 AM CST (2/7) 2:52 PM CST (2/7)
Length of Visible Light 11h 21m
Length of Day
10h 25m
Waning Crescent, 9% of the Moon is Illuminated
Feb 7
Waning Crescent
Feb 10
New
Feb 17
First Quarter
Feb 25
Full
Mar 4
Last Quarter

Hourly Weather History & Observations

Time (CST) Temp. Windchill Dew Point Humidity Pressure Visibility Wind Dir Wind Speed Gust Speed Precip Events Conditions
12:15 AM 39.4 °F 33.2 °F 32.7 °F 77% 30.05 in 10.0 mi SE 9.2 mph - N/A   Scattered Clouds
12:35 AM 39.2 °F 32.5 °F 32.0 °F 75% 30.04 in 10.0 mi SE 10.4 mph - N/A   Scattered Clouds
12:55 AM 39.7 °F 32.7 °F 32.5 °F 75% 30.03 in 10.0 mi SE 11.5 mph - N/A   Scattered Clouds
1:15 AM 40.1 °F 34.1 °F 32.5 °F 74% 30.02 in 10.0 mi SE 9.2 mph - N/A   Scattered Clouds
1:35 AM 41.0 °F 34.7 °F 32.4 °F 71% 30.02 in 10.0 mi SSE 10.4 mph - N/A   Scattered Clouds
1:55 AM 41.0 °F 35.2 °F 32.4 °F 71% 30.02 in 10.0 mi South 9.2 mph - N/A   Mostly Cloudy
2:15 AM 41.0 °F 35.2 °F 32.4 °F 71% 30.02 in 10.0 mi SSE 9.2 mph - N/A   Overcast
2:35 AM 41.0 °F 38.0 °F 32.2 °F 71% 30.03 in 10.0 mi South 4.6 mph - N/A   Overcast
2:55 AM 40.1 °F - 32.2 °F 73% 30.03 in 10.0 mi Calm Calm - N/A   Overcast
3:15 AM 40.1 °F 38.0 °F 32.0 °F 73% 30.03 in 10.0 mi South 3.5 mph - N/A   Overcast
3:35 AM 39.4 °F 37.2 °F 32.0 °F 75% 30.02 in 10.0 mi South 3.5 mph - N/A   Mostly Cloudy
3:55 AM 39.9 °F 36.7 °F 32.2 °F 74% 30.02 in 10.0 mi South 4.6 mph - N/A   Overcast
4:15 AM 39.9 °F 35.8 °F 32.2 °F 74% 30.02 in 10.0 mi South 5.8 mph - N/A   Mostly Cloudy
4:35 AM 40.1 °F 36.1 °F 32.2 °F 73% 30.02 in 10.0 mi South 5.8 mph - N/A   Mostly Cloudy
4:55 AM 40.1 °F 34.7 °F 32.2 °F 73% 30.01 in 10.0 mi SSE 8.1 mph - N/A   Overcast
5:15 AM 40.3 °F 33.0 °F 32.4 °F 73% 29.99 in 10.0 mi SSE 12.7 mph - N/A   Overcast
5:35 AM 41.0 °F 35.2 °F 32.0 °F 70% 29.98 in 10.0 mi SE 9.2 mph - N/A   Overcast
5:55 AM 41.0 °F 35.2 °F 32.0 °F 70% 29.98 in 10.0 mi SE 9.2 mph - N/A   Overcast
6:15 AM 39.6 °F 33.5 °F 32.2 °F 75% 29.98 in 10.0 mi SE 9.2 mph - N/A   Overcast
6:35 AM 39.7 °F 37.6 °F 32.5 °F 75% 29.98 in 10.0 mi South 3.5 mph - N/A   Light Drizzle
6:55 AM 39.2 °F 37.0 °F 33.1 °F 79% 29.99 in 7.0 mi NNW 3.5 mph - N/A Rain Light Rain
7:15 AM 39.6 °F 37.4 °F 33.3 °F 78% 29.99 in 4.0 mi ENE 3.5 mph - 0.01 in Rain Heavy Rain
7:35 AM 38.8 °F 33.8 °F 33.8 °F 82% 29.99 in 4.0 mi ESE 6.9 mph - 0.04 in Rain Rain
7:55 AM 37.9 °F 33.5 °F 34.7 °F 88% 29.99 in 2.0 mi East 5.8 mph - 0.06 in Rain Rain
8:15 AM 37.8 °F 32.5 °F 35.6 °F 92% 29.99 in 2.5 mi East 6.9 mph - 0.01 in Rain Light Rain
8:35 AM 37.6 °F 34.0 °F 35.6 °F 93% 29.98 in 3.0 mi East 4.6 mph - 0.03 in Rain Light Rain
8:55 AM 37.8 °F 34.2 °F 35.8 °F 93% 29.98 in 2.5 mi East 4.6 mph - 0.03 in Rain Light Rain
9:15 AM 37.6 °F - 35.6 °F 93% 29.98 in 2.5 mi Calm Calm - N/A Rain Light Rain
9:35 AM 37.8 °F - 35.8 °F 93% 29.98 in 3.0 mi Calm Calm - N/A Rain Light Rain
9:55 AM 38.1 °F 34.6 °F 36.1 °F 93% 29.96 in 2.5 mi ESE 4.6 mph - N/A Rain Light Rain
10:15 AM 38.3 °F 34.8 °F 36.5 °F 93% 29.96 in 2.0 mi SE 4.6 mph - N/A Rain Rain
10:35 AM 38.7 °F 33.6 °F 37.0 °F 94% 29.95 in 1.5 mi SE 6.9 mph - 0.05 in Rain Rain
10:55 AM 39.2 °F 35.0 °F 37.4 °F 93% 29.94 in 2.5 mi ESE 5.8 mph - 0.05 in Rain Light Rain
11:15 AM 39.7 °F 37.6 °F 38.3 °F 95% 29.94 in 2.5 mi SSE 3.5 mph - N/A   Overcast
11:35 AM 40.5 °F 38.4 °F 38.5 °F 93% 29.93 in 3.0 mi South 3.5 mph - N/A Rain Light Rain
11:55 AM 41.0 °F 39.0 °F 38.3 °F 90% 29.92 in 2.5 mi South 3.5 mph - 0.02 in Rain Rain
12:15 PM 41.2 °F - 38.5 °F 90% 29.91 in 4.0 mi Calm Calm - 0.01 in Rain Light Rain
12:35 PM 41.2 °F - 38.8 °F 91% 29.90 in 2.0 mi Calm Calm - 0.04 in Rain Rain
12:55 PM 41.4 °F - 39.4 °F 93% 29.90 in 1.5 mi Calm Calm - 0.09 in Rain Rain
1:15 PM 41.5 °F 39.6 °F 39.9 °F 94% 29.90 in 1.8 mi SSW 3.5 mph - 0.02 in Rain Light Rain
1:35 PM 41.9 °F 40.0 °F 40.1 °F 93% 29.89 in 1.8 mi SSW 3.5 mph - 0.04 in Rain Light Rain
1:55 PM 41.9 °F 39.0 °F 40.3 °F 94% 29.88 in 2.0 mi SW 4.6 mph - 0.06 in Rain Light Rain
2:15 PM 42.1 °F 39.2 °F 40.5 °F 94% 29.88 in 2.0 mi SW 4.6 mph - 0.01 in Rain Light Rain
2:35 PM 42.4 °F 40.7 °F 41.0 °F 95% 29.88 in 2.0 mi WSW 3.5 mph - 0.03 in Rain Light Rain
2:55 PM 42.4 °F 39.6 °F 41.0 °F 95% 29.88 in 1.8 mi WSW 4.6 mph - 0.04 in Rain Rain
3:15 PM 42.4 °F 39.6 °F 41.0 °F 95% 29.87 in 2.0 mi WSW 4.6 mph - 0.01 in Rain Rain
3:35 PM 42.4 °F 38.8 °F 41.0 °F 95% 29.87 in 2.0 mi SW 5.8 mph - 0.02 in Rain Rain
3:55 PM 42.6 °F 40.9 °F 41.2 °F 95% 29.87 in 1.8 mi WSW 3.5 mph - 0.03 in Rain Light Rain
4:15 PM 42.6 °F 39.0 °F 41.2 °F 95% 29.87 in 1.5 mi WSW 5.8 mph - 0.01 in Rain Light Rain
4:35 PM 42.3 °F 39.4 °F 41.0 °F 95% 29.88 in 1.5 mi West 4.6 mph - 0.01 in   Overcast
4:55 PM 42.1 °F 39.2 °F 41.0 °F 96% 29.89 in 1.2 mi West 4.6 mph - 0.01 in   Overcast
5:15 PM 42.1 °F 37.1 °F 41.0 °F 96% 29.91 in 2.5 mi West 8.1 mph - N/A   Overcast
5:35 PM 41.9 °F 38.2 °F 40.6 °F 95% 29.91 in 1.5 mi West 5.8 mph - N/A   Light Drizzle
5:55 PM 41.4 °F 37.6 °F 40.3 °F 96% 29.91 in 1.8 mi WNW 5.8 mph - N/A   Overcast
6:15 PM 41.5 °F 36.4 °F 40.5 °F 96% 29.93 in 2.5 mi WNW 8.1 mph - N/A   Overcast
6:35 PM 41.9 °F 35.0 °F 40.6 °F 95% 29.94 in 4.0 mi NW 12.7 mph 16.1 mph N/A   Overcast
6:55 PM 41.7 °F 34.4 °F 40.6 °F 96% 29.95 in 5.0 mi NW 13.8 mph - N/A   Overcast
7:15 PM 41.5 °F 33.8 °F 40.3 °F 95% 29.96 in 7.0 mi NW 15.0 mph 18.4 mph N/A   Overcast
7:35 PM 41.5 °F 34.6 °F 40.1 °F 95% 29.97 in 7.0 mi NW 12.7 mph 19.6 mph N/A   Overcast
7:55 PM 41.4 °F 34.3 °F 39.7 °F 94% 29.97 in 5.0 mi NW 12.7 mph - N/A   Overcast
8:15 PM 41.2 °F 34.1 °F 39.6 °F 94% 29.98 in 5.0 mi NW 12.7 mph - N/A   Overcast
8:35 PM 41.0 °F 33.1 °F 39.2 °F 93% 29.99 in 7.0 mi NW 15.0 mph 24.2 mph N/A   Overcast
8:55 PM 40.5 °F 31.8 °F 38.7 °F 93% 30.00 in 7.0 mi NW 17.3 mph 25.3 mph N/A   Overcast
9:15 PM 40.1 °F 31.0 °F 38.3 °F 93% 30.01 in 7.0 mi NW 18.4 mph 24.2 mph N/A   Overcast
9:35 PM 39.6 °F 31.3 °F 37.8 °F 93% 30.02 in 5.0 mi NW 15.0 mph - N/A   Overcast
9:55 PM 39.2 °F 30.5 °F 37.4 °F 93% 30.02 in 4.0 mi NW 16.1 mph - N/A   Overcast
10:15 PM 39.0 °F 30.3 °F 37.4 °F 94% 30.02 in 5.0 mi NW 16.1 mph 25.3 mph N/A   Overcast
10:35 PM 38.7 °F 29.5 °F 36.9 °F 93% 30.03 in 4.0 mi NW 17.3 mph 23.0 mph N/A   Overcast
10:55 PM 38.5 °F 29.6 °F 36.7 °F 93% 30.04 in 4.0 mi NW 16.1 mph 20.7 mph N/A   Overcast
11:15 PM 38.3 °F 29.0 °F 36.5 °F 93% 30.04 in 4.0 mi NW 17.3 mph 21.9 mph N/A   Overcast
11:35 PM 38.3 °F 30.5 °F 36.5 °F 93% 30.05 in 3.0 mi NW 12.7 mph 23.0 mph N/A   Overcast
11:55 PM 37.9 °F 30.0 °F 36.5 °F 95% 30.06 in 3.0 mi NW 12.7 mph 18.4 mph N/A   Overcast